When you browse on this site, cookies collect data to enhance your experience and personalize the content and advertising you see.
Visit our Privacy Policy to learn more. By continuing to use the site, you agree to this use of cookies and data.
  • In Netherlands
  • List of Countries
  • For 7 days
  • Water Temperature
  • Weather Map
  • Weather Widgets
  • user-avatar
    Login

    Hourly Weather Ashty

    Today, 20 October, Sunday

    Time Temperature Precipitation Wind Pressure Humidity
    00:00 +9°C° 0 mm 1 mps 625 mmHg 75%
    01:00 +9°C° 0 mm 1 mps 625 mmHg 74%
    02:00 +9°C° 0 mm 1 mps 625 mmHg 74%
    03:00 +9°C° 0 mm 1 mps 625 mmHg 75%
    04:00 +8°C° 0 mm 1 mps 625 mmHg 75%
    05:00 +8°C° 0 mm 1 mps 625 mmHg 76%
    06:00 +8°C° 0 mm 1 mps 625 mmHg 77%
    07:00 +10°C° 0 mm 1 mps 626 mmHg 71%
    08:00 +11°C° 0 mm 1 mps 627 mmHg 66%
    09:00 +13°C° 0 mm 1 mps 627 mmHg 61%
    10:00 +14°C° 0 mm 2 mps 628 mmHg 60%
    11:00 +14°C° 0 mm 2 mps 628 mmHg 60%
    12:00 +14°C° 0 mm 3 mps 628 mmHg 59%
    13:00 +14°C° 0.2 mm 2 mps 628 mmHg 64%
    14:00 +14°C° 0.2 mm 2 mps 627 mmHg 68%
    15:00 +13°C° 0.2 mm 2 mps 627 mmHg 73%
    16:00 +12°C° 0.2 mm 1 mps 627 mmHg 79%
    17:00 +11°C° 0.2 mm 1 mps 626 mmHg 86%
    18:00 +8°C° 0.2 mm 0 mps 626 mmHg 92%
    19:00 +8°C° 0 mm 0 mps 626 mmHg 91%
    20:00 +8°C° 0 mm 0 mps 626 mmHg 90%
    21:00 +7°C° 0 mm 0 mps 626 mmHg 89%
    22:00 +7°C° 0 mm 0 mps 626 mmHg 89%
    23:00 +7°C° 0 mm 0 mps 626 mmHg 88%

    Tomorrow, 21 October, Monday

    Time Temperature Precipitation Wind Pressure Humidity
    00:00 +7°C° 0 mm 0 mps 626 mmHg 87%
    01:00 +8°C° 0 mm 1 mps 626 mmHg 86%
    02:00 +8°C° 0 mm 1 mps 626 mmHg 84%
    03:00 +7°C° 0 mm 1 mps 625 mmHg 83%
    04:00 +7°C° 0 mm 1 mps 625 mmHg 82%
    05:00 +7°C° 0 mm 1 mps 625 mmHg 81%
    06:00 +7°C° 0 mm 1 mps 625 mmHg 80%
    07:00 +9°C° 0 mm 1 mps 626 mmHg 74%
    08:00 +10°C° 0 mm 1 mps 627 mmHg 69%
    09:00 +12°C° 0 mm 1 mps 628 mmHg 63%
    10:00 +13°C° 0 mm 2 mps 628 mmHg 63%
    11:00 +13°C° 0 mm 2 mps 628 mmHg 63%
    12:00 +14°C° 0 mm 2 mps 628 mmHg 64%
    13:00 +13°C° 0.1 mm 2 mps 628 mmHg 69%
    14:00 +12°C° 0.1 mm 2 mps 627 mmHg 74%
    15:00 +12°C° 0.1 mm 2 mps 627 mmHg 79%
    16:00 +11°C° 0 mm 1 mps 627 mmHg 84%
    17:00 +10°C° 0 mm 1 mps 626 mmHg 89%
    18:00 +8°C° 0 mm 0 mps 626 mmHg 94%
    19:00 +8°C° 0 mm 0 mps 626 mmHg 93%
    20:00 +7°C° 0 mm 0 mps 626 mmHg 92%
    21:00 +7°C° 0 mm 0 mps 625 mmHg 91%
    22:00 +7°C° 0 mm 0 mps 625 mmHg 90%
    23:00 +7°C° 0 mm 0 mps 625 mmHg 89%

    Day after tomorrow, 22 October, Tuesday

    Time Temperature Precipitation Wind Pressure Humidity
    00:00 +7°C° 0 mm 1 mps 625 mmHg 88%
    01:00 +7°C° 0 mm 1 mps 625 mmHg 86%
    02:00 +7°C° 0 mm 1 mps 625 mmHg 85%
    03:00 +7°C° 0 mm 1 mps 625 mmHg 83%
    04:00 +7°C° 0 mm 1 mps 624 mmHg 81%
    05:00 +7°C° 0 mm 1 mps 624 mmHg 80%
    06:00 +7°C° 0 mm 1 mps 624 mmHg 78%
    07:00 +8°C° 0 mm 1 mps 625 mmHg 73%
    08:00 +10°C° 0 mm 1 mps 626 mmHg 69%
    09:00 +12°C° 0 mm 1 mps 627 mmHg 64%
    10:00 +12°C° 0 mm 2 mps 627 mmHg 64%
    11:00 +13°C° 0 mm 2 mps 627 mmHg 64%
    12:00 +13°C° 0 mm 2 mps 627 mmHg 65%
    13:00 +13°C° 0 mm 2 mps 627 mmHg 69%
    14:00 +12°C° 0 mm 2 mps 626 mmHg 74%
    15:00 +12°C° 0 mm 2 mps 626 mmHg 79%
    16:00 +11°C° 0 mm 1 mps 625 mmHg 84%
    17:00 +10°C° 0 mm 1 mps 625 mmHg 89%
    18:00 +8°C° 0 mm 0 mps 625 mmHg 94%
    19:00 +8°C° 0 mm 0 mps 625 mmHg 93%
    20:00 +7°C° 0 mm 0 mps 625 mmHg 93%
    21:00 +7°C° 0 mm 0 mps 625 mmHg 92%
    22:00 +7°C° 0 mm 0 mps 625 mmHg 91%
    23:00 +6°C° 0 mm 0 mps 624 mmHg 90%

    23 October, Wednesday

    Time Temperature Precipitation Wind Pressure Humidity
    00:00 +6°C° 0 mm 0 mps 624 mmHg 89%
    01:00 +5°C° 0 mm 0 mps 624 mmHg 88%
    02:00 +5°C° 0 mm 0 mps 624 mmHg 88%
    03:00 +5°C° 0 mm 0 mps 624 mmHg 87%
    04:00 +5°C° 0 mm 0 mps 624 mmHg 86%
    05:00 +5°C° 0 mm 0 mps 624 mmHg 85%
    06:00 +5°C° 0 mm 0 mps 623 mmHg 85%
    07:00 +7°C° 0 mm 1 mps 624 mmHg 80%
    08:00 +9°C° 0 mm 1 mps 625 mmHg 75%
    09:00 +10°C° 0 mm 1 mps 626 mmHg 70%
    10:00 +10°C° 0 mm 2 mps 626 mmHg 70%
    11:00 +10°C° 0 mm 2 mps 626 mmHg 70%
    12:00 +12°C° 0 mm 2 mps 626 mmHg 70%
    13:00 +10°C° 0 mm 2 mps 626 mmHg 75%
    14:00 +9°C° 0 mm 2 mps 625 mmHg 81%
    15:00 +9°C° 0 mm 2 mps 625 mmHg 86%
    16:00 +9°C° 0 mm 1 mps 625 mmHg 88%
    17:00 +9°C° 0 mm 1 mps 625 mmHg 91%
    18:00 +7°C° 0 mm 0 mps 625 mmHg 93%
    19:00 +7°C° 0 mm 0 mps 625 mmHg 92%
    20:00 +7°C° 0 mm 0 mps 625 mmHg 91%
    21:00 +6°C° 0 mm 0 mps 625 mmHg 91%
    22:00 +6°C° 0 mm 0 mps 625 mmHg 90%
    23:00 +6°C° 0 mm 0 mps 624 mmHg 90%

    24 October, Thursday

    Time Temperature Precipitation Wind Pressure Humidity
    00:00 +5°C° 0 mm 0 mps 624 mmHg 89%
    01:00 +5°C° 0 mm 0 mps 624 mmHg 88%
    02:00 +5°C° 0 mm 0 mps 624 mmHg 87%
    03:00 +5°C° 0 mm 0 mps 624 mmHg 86%
    04:00 +5°C° 0 mm 0 mps 623 mmHg 84%
    05:00 +6°C° 0 mm 1 mps 623 mmHg 82%
    06:00 +6°C° 0 mm 1 mps 623 mmHg 80%
    07:00 +7°C° 0 mm 1 mps 624 mmHg 73%
    08:00 +9°C° 0 mm 1 mps 625 mmHg 66%
    09:00 +11°C° 0 mm 1 mps 625 mmHg 58%
    10:00 +10°C° 0 mm 2 mps 625 mmHg 58%
    11:00 +12°C° 0 mm 2 mps 625 mmHg 58%
    12:00 +13°C° 0 mm 2 mps 625 mmHg 59%
    13:00 +12°C° 0 mm 2 mps 625 mmHg 63%
    14:00 +12°C° 0 mm 2 mps 625 mmHg 67%
    15:00 +12°C° 0 mm 2 mps 624 mmHg 72%
    16:00 +10°C° 0 mm 1 mps 624 mmHg 77%
    17:00 +9°C° 0 mm 1 mps 623 mmHg 83%
    18:00 +8°C° 0 mm 1 mps 623 mmHg 89%
    19:00 +8°C° 0 mm 1 mps 623 mmHg 85%
    20:00 +8°C° 0 mm 1 mps 623 mmHg 81%
    21:00 +8°C° 0 mm 1 mps 623 mmHg 77%
    22:00 +7°C° 0 mm 1 mps 623 mmHg 74%
    23:00 +7°C° 0 mm 1 mps 623 mmHg 71%

    25 October, Friday

    Time Temperature Precipitation Wind Pressure Humidity
    00:00 +7°C° 0 mm 1 mps 622 mmHg 68%
    01:00 +7°C° 0 mm 1 mps 622 mmHg 64%
    02:00 +7°C° 0 mm 1 mps 622 mmHg 60%
    03:00 +7°C° 0 mm 1 mps 622 mmHg 55%
    04:00 +7°C° 0 mm 1 mps 622 mmHg 52%
    05:00 +7°C° 0 mm 1 mps 622 mmHg 49%
    06:00 +7°C° 0 mm 1 mps 622 mmHg 46%
    07:00 +8°C° 0 mm 1 mps 623 mmHg 43%
    08:00 +10°C° 0 mm 1 mps 623 mmHg 40%
    09:00 +12°C° 0 mm 1 mps 624 mmHg 37%
    10:00 +13°C° 0 mm 1 mps 624 mmHg 40%
    11:00 +14°C° 0 mm 2 mps 624 mmHg 42%
    12:00 +14°C° 0 mm 2 mps 625 mmHg 44%
    13:00 +14°C° 0 mm 2 mps 624 mmHg 50%
    14:00 +13°C° 0 mm 2 mps 624 mmHg 55%
    15:00 +13°C° 0 mm 2 mps 624 mmHg 61%
    16:00 +10°C° 0 mm 2 mps 623 mmHg 70%
    17:00 +10°C° 0 mm 1 mps 623 mmHg 79%
    18:00 +8°C° 0 mm 1 mps 622 mmHg 89%
    19:00 +8°C° 0 mm 1 mps 622 mmHg 86%
    20:00 +8°C° 0 mm 1 mps 622 mmHg 83%
    21:00 +8°C° 0 mm 1 mps 622 mmHg 81%
    22:00 +8°C° 0 mm 1 mps 622 mmHg 79%
    23:00 +7°C° 0 mm 1 mps 622 mmHg 78%
    Show more